Location: East Horndon
(51.5667°N, 0.3500°E)
Time: 12:27:36
(UTC+00:00)

Okean 1 Rocket - Visible Passes

Search period start: 18 February 2026 00:00
Search period end: 28 February 2026 00:00
Orbit: 600 x 626 km, 82.5° (Epoch: 17 February)

Date Brightness Start Highest point End Pass type
(mag) Time Alt. Az. Time Alt. Az. Time Alt. Az.
18 Feb 4.9 06:07:55 10° SSE 06:11:58 36° E 06:16:02 10° NNE visible
18 Feb 3.7 17:47:32 10° NNW 17:51:52 63° W 17:56:08 10° S visible
19 Feb 3.8 06:23:02 10° S 06:27:23 59° E 06:31:46 10° NNE visible
19 Feb 4.8 18:03:14 10° NNW 18:07:18 38° W 18:11:18 10° SSW visible
20 Feb 6.6 05:03:48 10° ESE 05:05:49 13° E 05:07:50 10° NE visible
20 Feb 5.8 18:19:09 10° NW 18:22:39 24° W 18:26:05 10° SW visible
21 Feb 5.9 05:17:48 10° SE 05:21:05 21° E 05:24:22 10° NE visible
21 Feb 6.3 18:35:28 10° NW 18:37:55 15° W 18:40:20 10° WSW visible
22 Feb 5.1 05:32:27 10° SSE 05:36:25 32° E 05:40:22 10° NNE visible
23 Feb 4.0 05:47:30 10° S 05:51:49 53° E 05:56:08 10° NNE visible
24 Feb 6.5 04:28:46 10° E 04:30:17 12° E 04:31:49 10° ENE visible
24 Feb 3.1 06:02:51 10° S 06:07:18 88° ESE 06:11:45 10° N visible
25 Feb 6.0 04:42:27 10° SE 04:45:32 19° E 04:48:35 10° NE visible
26 Feb 5.2 04:57:01 10° SSE 05:00:50 29° E 05:04:39 10° NNE visible
27 Feb 4.2 05:11:59 10° SSE 05:16:13 47° E 05:20:28 10° NNE visible
